Weather History for KAFF - March, 2013

Change the Weather History Date:

Sunday, March 3, 2013

  Actual Average Record
Temperature  
Mean Temperature 42 °F -  
Max Temperature 59 °F 42 °F 66 °F (2009)
Min Temperature 26 °F 20 °F 7 °F (2008)
Degree Days  
Heating Degree Days 22    
Moisture  
Dew Point 18 °F    
Average Humidity 41    
Maximum Humidity 74    
Minimum Humidity 16    
Precipitation  
Precipitation 0.00 in - - ()
Sea Level Pressure  
Sea Level Pressure 29.81 in    
Wind  
Wind Speed 7 mph (NNW)    
Max Wind Speed 14 mph    
Max Gust Speed 24 mph    
Visibility 10 miles    
Events      
Averages and records for this station are not official NWS values.
T = Trace of Precipitation, MM = Missing Value Source: NWS Daily Summary

Daily Weather History Graph

Daily Weather History Graph

Search for Another Location

Airport or City:

Trip Planner

Search our weather history database for the weather conditions in past years. The results will help you decide how hot, cold, wet, or windy it might be!

Date:

Astronomy

Mar. 03, 2013 Rise Set
Actual Time 6:28 AM MST 5:54 PM MST
Civil Twilight 6:01 AM MST 6:21 PM MST
Nautical Twilight 5:30 AM MST 6:52 PM MST
Astronomical Twilight 4:59 AM MST 7:22 PM MST
Moon No Moon Rise 9:49 AM MST (3/3)
Length of Visible Light 12h 19m
Length of Day
11h 26m
Waning Gibbous, 63% of the Moon is Illuminated
Mar 3
Waning Gibbous
Mar 4
Last Quarter
Mar 11
New
Mar 19
First Quarter
Mar 27
Full

Hourly Weather History & Observations

Time (MST) Temp. Windchill Dew Point Humidity Pressure Visibility Wind Dir Wind Speed Gust Speed Precip Events Conditions
12:58 AM 31.6 °F 24.4 °F 23.9 °F 73% 30.04 in 10.0 mi NNW 8.1 mph - N/A   Clear
1:58 AM 31.8 °F 26.2 °F 23.4 °F 71% 30.00 in 10.0 mi NNE 5.8 mph - N/A   Scattered Clouds
2:58 AM 34.2 °F - 21.7 °F 60% 29.93 in 10.0 mi Variable 1.2 mph - N/A   Overcast
3:58 AM 32.5 °F 24.2 °F 21.2 °F 63% 29.94 in 10.0 mi North 10.4 mph - N/A   Overcast
4:58 AM 28.0 °F 20.0 °F 20.7 °F 74% 29.93 in 10.0 mi North 8.1 mph - N/A   Clear
5:58 AM 27.5 °F 20.2 °F 19.9 °F 73% 29.93 in 10.0 mi NE 6.9 mph - N/A   Clear
6:58 AM 26.8 °F 18.5 °F 19.2 °F 73% 29.96 in 10.0 mi North 8.1 mph - N/A   Clear
7:58 AM 34.2 °F 31.2 °F 21.4 °F 60% 29.93 in 10.0 mi Variable 3.5 mph - N/A   Clear
8:58 AM 45.5 °F 43.2 °F 18.7 °F 34% 29.85 in 10.0 mi East 4.6 mph - N/A   Clear
9:58 AM 52.9 °F - 12.9 °F 20% 29.81 in 10.0 mi South 5.8 mph - N/A   Partly Cloudy
10:58 AM 56.3 °F - 11.3 °F 17% 29.75 in 10.0 mi Variable 2.3 mph - N/A   Clear
11:58 AM 56.7 °F - 13.3 °F 18% 29.73 in 10.0 mi SSE 9.2 mph - N/A   Partly Cloudy
12:51 PM 59.0 °F - 12.2 °F 16% 29.77 in 10.0 mi WSW 12.7 mph 23.0 mph N/A   Scattered Clouds
12:58 PM 58.3 °F - 11.7 °F 16% 29.66 in 10.0 mi Variable 4.6 mph 23.0 mph N/A   Scattered Clouds
1:00 PM 59.0 °F - 12.2 °F 16% 29.76 in 10.0 mi West 11.5 mph 23.0 mph N/A   Scattered Clouds
1:58 PM 58.5 °F - 15.3 °F 18% 29.63 in 10.0 mi WSW 11.5 mph 24.2 mph N/A   Partly Cloudy
2:01 PM 59.0 °F - 15.8 °F 19% 29.73 in 10.0 mi SSW 13.8 mph 24.2 mph N/A   Partly Cloudy
8:55 PM 46.4 °F 42.4 °F 19.4 °F 34% 29.75 in 10.0 mi WNW 8.1 mph - N/A   Clear
9:55 PM 46.4 °F 41.5 °F 19.4 °F 34% 29.75 in 10.0 mi North 10.4 mph - N/A   Clear
10:58 PM 42.8 °F 40.1 °F 21.2 °F 42% 29.61 in 10.0 mi NE 4.6 mph - N/A   Partly Cloudy
11:58 PM 45.1 °F - 19.2 °F 36% 29.58 in 10.0 mi Variable 2.3 mph - N/A   Clear